• In Hungary
  • List of Countries
  • For 7 days
  • Water Temperature
  • Satellite Maps
  • Weather Map
  • News
  • Weather Widgets
  • user-avatar
    Login

    Hourly Weather Dedilovskie Vyselki

    Today, 22 September, Saturday

    Time Temperature Precipitation Wind Pressure Humidity
    00:00 +16°C° 0 mm 2 mps 745 mmHg 81%
    01:00 +16°C° 0 mm 2 mps 745 mmHg 82%
    02:00 +16°C° 0 mm 2 mps 745 mmHg 82%
    03:00 +16°C° 0 mm 2 mps 745 mmHg 83%
    04:00 +15°C° 0 mm 2 mps 745 mmHg 83%
    05:00 +15°C° 0 mm 2 mps 745 mmHg 83%
    06:00 +15°C° 0 mm 2 mps 745 mmHg 84%
    07:00 +16°C° 0 mm 3 mps 745 mmHg 79%
    08:00 +18°C° 0 mm 3 mps 744 mmHg 75%
    09:00 +19°C° 0 mm 3 mps 744 mmHg 70%
    10:00 +21°C° 0 mm 4 mps 744 mmHg 65%
    11:00 +22°C° 0 mm 4 mps 744 mmHg 60%
    12:00 +25°C° 0 mm 5 mps 744 mmHg 56%
    13:00 +25°C° 0 mm 5 mps 744 mmHg 54%
    14:00 +26°C° 0 mm 5 mps 743 mmHg 53%
    15:00 +26°C° 0 mm 6 mps 743 mmHg 52%
    16:00 +25°C° 0 mm 5 mps 742 mmHg 57%
    17:00 +22°C° 0 mm 5 mps 742 mmHg 62%
    18:00 +21°C° 0 mm 4 mps 741 mmHg 67%
    19:00 +21°C° 0 mm 4 mps 741 mmHg 66%
    20:00 +20°C° 0 mm 5 mps 741 mmHg 66%
    21:00 +19°C° 0 mm 5 mps 740 mmHg 65%
    22:00 +19°C° 0 mm 5 mps 740 mmHg 64%
    23:00 +19°C° 0 mm 5 mps 740 mmHg 62%

    Tomorrow, 23 September, Sunday

    Time Temperature Precipitation Wind Pressure Humidity
    00:00 +19°C° 0 mm 5 mps 739 mmHg 60%
    01:00 +19°C° 0 mm 5 mps 739 mmHg 61%
    02:00 +17°C° 0 mm 5 mps 739 mmHg 61%
    03:00 +17°C° 0 mm 5 mps 739 mmHg 62%
    04:00 +16°C° 0.1 mm 5 mps 738 mmHg 65%
    05:00 +15°C° 0.1 mm 4 mps 738 mmHg 68%
    06:00 +15°C° 0.1 mm 4 mps 737 mmHg 72%
    07:00 +15°C° 0.4 mm 4 mps 737 mmHg 75%
    08:00 +14°C° 0.4 mm 4 mps 737 mmHg 78%
    09:00 +14°C° 0.4 mm 4 mps 737 mmHg 81%
    10:00 +13°C° 1.1 mm 5 mps 737 mmHg 82%
    11:00 +10°C° 1.1 mm 6 mps 737 mmHg 84%
    12:00 +9°C° 1.1 mm 6 mps 737 mmHg 86%
    13:00 +9°C° 0.7 mm 6 mps 738 mmHg 85%
    14:00 +9°C° 0.7 mm 5 mps 738 mmHg 84%
    15:00 +10°C° 0.7 mm 4 mps 739 mmHg 82%
    16:00 +11°C° 0 mm 4 mps 739 mmHg 83%
    17:00 +11°C° 0 mm 3 mps 739 mmHg 83%
    18:00 +11°C° 0 mm 3 mps 739 mmHg 84%
    19:00 +10°C° 0 mm 3 mps 739 mmHg 86%
    20:00 +10°C° 0 mm 3 mps 739 mmHg 88%
    21:00 +9°C° 0 mm 3 mps 739 mmHg 90%
    22:00 +9°C° 0 mm 3 mps 739 mmHg 91%
    23:00 +9°C° 0 mm 3 mps 739 mmHg 91%

    Day after tomorrow, 24 September, Monday

    Time Temperature Precipitation Wind Pressure Humidity
    00:00 +8°C° 0 mm 3 mps 739 mmHg 92%
    01:00 +8°C° 0 mm 3 mps 739 mmHg 92%
    02:00 +8°C° 0 mm 3 mps 739 mmHg 92%
    03:00 +7°C° 0 mm 3 mps 739 mmHg 93%
    04:00 +7°C° 0 mm 3 mps 739 mmHg 93%
    05:00 +7°C° 0 mm 3 mps 739 mmHg 93%
    06:00 +5°C° 0 mm 3 mps 739 mmHg 93%
    07:00 +8°C° 0 mm 3 mps 739 mmHg 88%
    08:00 +9°C° 0 mm 3 mps 739 mmHg 83%
    09:00 +10°C° 0 mm 3 mps 739 mmHg 78%
    10:00 +12°C° 0 mm 4 mps 739 mmHg 72%
    11:00 +13°C° 0 mm 5 mps 739 mmHg 66%
    12:00 +15°C° 0 mm 5 mps 739 mmHg 59%
    13:00 +14°C° 0.2 mm 5 mps 738 mmHg 63%
    14:00 +13°C° 0.2 mm 6 mps 737 mmHg 66%
    15:00 +13°C° 0.2 mm 6 mps 736 mmHg 70%
    16:00 +11°C° 2.2 mm 6 mps 735 mmHg 76%
    17:00 +10°C° 2.2 mm 7 mps 734 mmHg 82%
    18:00 +9°C° 2.2 mm 7 mps 734 mmHg 88%
    19:00 +8°C° 2.8 mm 9 mps 732 mmHg 88%
    20:00 +8°C° 2.8 mm 10 mps 731 mmHg 88%
    21:00 +8°C° 2.8 mm 11 mps 729 mmHg 88%
    22:00 +9°C° 1.2 mm 11 mps 728 mmHg 87%
    23:00 +9°C° 1.2 mm 10 mps 726 mmHg 86%

    25 September, Tuesday

    Time Temperature Precipitation Wind Pressure Humidity
    00:00 +9°C° 1.2 mm 10 mps 725 mmHg 84%
    01:00 +8°C° 0.1 mm 10 mps 724 mmHg 83%
    02:00 +8°C° 0.1 mm 10 mps 724 mmHg 82%
    03:00 +7°C° 0.1 mm 10 mps 723 mmHg 81%
    04:00 +7°C° 0.1 mm 10 mps 723 mmHg 81%
    05:00 +6°C° 0.1 mm 11 mps 722 mmHg 81%
    06:00 +6°C° 0.1 mm 11 mps 722 mmHg 81%
    07:00 +6°C° 0.3 mm 10 mps 722 mmHg 82%
    08:00 +6°C° 0.3 mm 10 mps 723 mmHg 83%
    09:00 +6°C° 0.3 mm 10 mps 723 mmHg 85%
    10:00 +6°C° 0.4 mm 10 mps 724 mmHg 84%
    11:00 +6°C° 0.4 mm 10 mps 725 mmHg 83%
    12:00 +6°C° 0.4 mm 11 mps 726 mmHg 82%
    13:00 +4°C° 0.4 mm 11 mps 727 mmHg 82%
    14:00 +4°C° 0.4 mm 11 mps 728 mmHg 81%
    15:00 +4°C° 0.4 mm 11 mps 729 mmHg 81%
    16:00 +4°C° 0.5 mm 11 mps 729 mmHg 81%
    17:00 +3°C° 0.5 mm 10 mps 730 mmHg 81%
    18:00 +3°C° 0.5 mm 10 mps 731 mmHg 82%
    19:00 +3°C° 0.3 mm 10 mps 732 mmHg 81%
    20:00 +3°C° 0.3 mm 10 mps 732 mmHg 81%
    21:00 +3°C° 0.3 mm 9 mps 733 mmHg 81%
    22:00 +3°C° 0.1 mm 9 mps 734 mmHg 80%
    23:00 +2°C° 0.1 mm 8 mps 734 mmHg 79%

    26 September, Wednesday

    Time Temperature Precipitation Wind Pressure Humidity
    00:00 +2°C° 0.1 mm 8 mps 735 mmHg 79%
    01:00 +1°C° 0 mm 8 mps 735 mmHg 79%
    02:00 +2°C° 0 mm 7 mps 736 mmHg 79%
    03:00 0°C° 0 mm 7 mps 736 mmHg 80%
    04:00 0°C° 0 mm 7 mps 737 mmHg 81%
    05:00 0°C° 0 mm 7 mps 737 mmHg 82%
    06:00 -1°C° 0 mm 6 mps 738 mmHg 83%
    07:00 +1°C° 0 mm 6 mps 738 mmHg 80%
    08:00 +1°C° 0 mm 6 mps 739 mmHg 77%
    09:00 +2°C° 0 mm 6 mps 739 mmHg 74%
    10:00 +3°C° 0 mm 6 mps 740 mmHg 69%
    11:00 +5°C° 0 mm 6 mps 740 mmHg 64%
    12:00 +7°C° 0 mm 5 mps 741 mmHg 58%
    13:00 +7°C° 0 mm 5 mps 741 mmHg 56%
    14:00 +8°C° 0 mm 5 mps 742 mmHg 53%
    15:00 +8°C° 0 mm 5 mps 742 mmHg 50%
    16:00 +7°C° 0 mm 4 mps 742 mmHg 55%
    17:00 +7°C° 0 mm 3 mps 743 mmHg 60%
    18:00 +6°C° 0 mm 2 mps 743 mmHg 65%
    19:00 +5°C° 0 mm 2 mps 744 mmHg 66%
    20:00 +5°C° 0 mm 2 mps 745 mmHg 68%
    21:00 +4°C° 0 mm 2 mps 745 mmHg 70%
    22:00 +4°C° 0 mm 2 mps 746 mmHg 71%
    23:00 +3°C° 0 mm 2 mps 746 mmHg 72%

    27 September, Thursday

    Time Temperature Precipitation Wind Pressure Humidity
    00:00 +3°C° 0 mm 2 mps 746 mmHg 73%
    01:00 +3°C° 0 mm 2 mps 747 mmHg 73%
    02:00 +4°C° 0 mm 1 mps 747 mmHg 73%
    03:00 +4°C° 0 mm 1 mps 747 mmHg 73%
    04:00 +4°C° 0 mm 1 mps 747 mmHg 73%
    05:00 +4°C° 0 mm 1 mps 747 mmHg 74%
    06:00 +4°C° 0 mm 1 mps 747 mmHg 74%
    07:00 +4°C° 0 mm 2 mps 747 mmHg 71%
    08:00 +5°C° 0 mm 2 mps 747 mmHg 69%
    09:00 +5°C° 0 mm 3 mps 747 mmHg 66%
    10:00 +7°C° 0 mm 4 mps 747 mmHg 64%
    11:00 +8°C° 0 mm 5 mps 747 mmHg 63%
    12:00 +9°C° 0 mm 6 mps 746 mmHg 61%
    13:00 +9°C° 0 mm 6 mps 746 mmHg 61%
    14:00 +10°C° 0 mm 7 mps 745 mmHg 61%
    15:00 +10°C° 0 mm 7 mps 745 mmHg 61%
    16:00 +10°C° 0 mm 7 mps 744 mmHg 64%
    17:00 +9°C° 0 mm 6 mps 744 mmHg 66%
    18:00 +9°C° 0 mm 6 mps 743 mmHg 69%
    19:00 +8°C° 0 mm 7 mps 743 mmHg 69%
    20:00 +8°C° 0 mm 7 mps 743 mmHg 70%
    21:00 +7°C° 0 mm 8 mps 742 mmHg 70%
    22:00 +7°C° 0 mm 8 mps 742 mmHg 69%
    23:00 +7°C° 0 mm 8 mps 742 mmHg 69%
    Show more